Regional Weather Roundup
Issued by NWS Albany, NY

Home | Current Version | Previous Version | Text Only | Print | Product List | Glossary Off
Versions: 1 2 3 4 5 6 7 8 9 10 11 12 13 14 15 16 17 18 19 20 21 22 23 24 25 26 27 28 29 30 31 32 33 34 35 36 37 38 39 40 41 42 43 44 45 46 47 48 49 50

000
ASUS41 KALY 281610
RWRALY

NEW YORK STATE HOURLY WEATHER ROUNDUP
NATIONAL WEATHER SERVICE ALBANY NY
1200 PM EDT SAT MAR 28 2015

NOTE: "FAIR" INDICATES FEW OR NO CLOUDS BELOW 12,000 FEET WITH NO
SIGNIFICANT WEATHER AND/OR NO OBSTRUCTIONS TO VISIBILITY.

NYZ032-033-038>043-046>054-057>066-NYZ062>081-281700-
EAST


CITY           SKY/WX    TMP DP  RH WIND       PRES   REMARKS
ALBANY         LGT SNOW  25  20  81 NW10      29.94R VSB 3/4 WCI  15
GLENS FALLS    CLOUDY    27  13  55 N14       29.93F WCI  16
POUGHKEEPSIE   LGT SNOW  30  22  72 N14G23    29.87R WCI  19
NEWBURGH       LGT SNOW  32  25  74 NE12      29.85S WCI  23
MONTGOMERY     LGT SNOW  33  27  78 N10       29.84S WCI  25
WHITE PLAINS   LGT SNOW  32  24  72 NW21G29   29.80R WCI  20
ISLIP          LGT SNOW  32  29  88 NW20G25   29.77S FOG     WCI  20
NEW YORK CITY  LGT SNOW  33  23  66 NW14G23   29.84R WCI  23
CENTRAL PARK   LGT SNOW  33  21  61 N13G21    29.85S WCI  24
$$

NYZ005>009-017-018-044>046-055-056-281700-
CENTRAL


CITY           SKY/WX    TMP DP  RH WIND       PRES   REMARKS
FULTON         PTSUNNY   18   6  59 NW15G21   30.08S WCI   4
SYRACUSE       CLOUDY    21   8  57 NW16      30.06S WCI   7
ROME           CLOUDY    23  10  57 NW13      30.02S WCI  11
ELMIRA         CLOUDY    22  11  62 N13G23    30.02F WCI  10
BINGHAMTON     LGT SNOW  19  11  70 NW15G21   29.91F WCI   5
MONTICELLO     CLOUDY    27  16  63 NW16G24   29.85S WCI  14
$$

NYZ026>034-041>043-281700-
NORTH


CITY           SKY/WX    TMP DP  RH WIND       PRES   REMARKS
WATERTOWN      SUNNY     21   6  52 N9        30.09S WCI  11
FORT DRUM      NOT AVBL
MASSENA        CLOUDY    19   4  51 N8        30.09F WCI   9
SARANAC LAKE   CLOUDY    18   9  68 N9        29.89S WCI   7
PLATTSBURGH    CLOUDY    23  13  65 N15       30.02F WCI  10
$$

NYZ001>004-010>016-019>021-281700-
WEST


CITY           SKY/WX    TMP DP  RH WIND       PRES   REMARKS
NIAGARA FALLS  MOSUNNY   20   8  60 N14       30.17S WCI   7
BUFFALO        MOSUNNY   20   7  57 N9G18     30.15S WCI   9
DUNKIRK        SUNNY     18   6  59 NW13G20   30.19R WCI   5
JAMESTOWN      CLOUDY    16   5  62 NW12      30.07R WCI   3
WELLSVILLE     CLOUDY    17   4  56 N15       29.98R WCI   2
ROCHESTER      PTSUNNY   19   7  59 N14       30.13S WCI   6
PENN YAN       CLOUDY    20   8  60 NW16      30.06R WCI   6
$$

             KEY
       WCI = WIND CHILL INDEX
       VSB = VISIBILITY
       HX  = HEAT INDEX
$$


USA.gov is the U.S. government's official web portal to all federal, state and local government web resources and services.